Nombre Tiempo Temp. Aire Precip. R.Solar Hum.rel. Velo.Viento Velocidad máxima viento
7. Emiliana +3 26-abr-2018 8:00 -2,2 °C 0,0 mm 0,6 W/m² 96,2 % RH 0,07 km/h -
28. Montes +3 26-abr-2018 8:00 20,7 °C 0,0 mm 0,4 W/m² 74,6 % RH 0,05 km/h -
30. Cono Sur +3 26-abr-2018 8:00 3,2 °C 0,0 mm 0,7 W/m² 100,0 % RH 3,53 km/h -
32. Hacienda Araucano +3 26-abr-2018 8:00 4,0 °C 0,0 mm 0,7 W/m² 100,0 % RH 2,49 km/h -
26. Lapostolle +3 26-abr-2018 8:00 5,5 °C 0,0 mm 0,5 W/m² 87,6 % RH 1,59 km/h -
25. LFE Nancagua (rep) +3 26-abr-2018 8:00 3,1 °C 0,0 mm 2,0 W/m² 92,9 % RH 0,99 km/h -
24.Casa Silva +3 26-abr-2018 8:00 3,0 °C 0,0 mm 0,4 W/m² 91,8 % RH 0,04 km/h -
4. Luis Felipe Edwards Leyda +3 26-abr-2018 8:00 5,0 °C 0,0 mm 0,6 W/m² 100,0 % RH 0,07 km/h -
5. Garces Silva +3 26-abr-2018 8:00 4,2 °C 0,0 mm 0,4 W/m² 100,0 % RH 0,48 km/h -
6. Casa Marin +3 26-abr-2018 8:00 -1,2 °C 0,0 mm 0,8 W/m² 98,6 % RH 0,19 km/h -
11. Morande-Sn Bernando +3 26-abr-2018 8:00 4,8 °C 0,0 mm 0,4 W/m² 81,1 % RH 0,03 km/h -
14. Demartino +3 26-abr-2018 8:00 1,5 °C 0,0 mm 2,8 W/m² 100,0 % RH 0,47 km/h -
17. Perez Cruz +3 25-abr-2018 8:44 0,0 °C 0,0 mm 0,0 W/m² 0,0 % RH 0,00 km/h -
16. Chocaban +3 18-abr-2018 7:45 5,0 °C 0,0 mm 0,4 W/m² 100,0 % RH 0,06 km/h -
12. Morande-Romeral +3 26-abr-2018 8:00 2,7 °C 0,0 mm 9,1 W/m² 88,7 % RH 2,92 km/h -
9. Casa Rivas +3 13-abr-2018 13:00 19,4 °C 0,0 mm 864,5 W/m² 54,3 % RH 8,31 km/h -
13. Santa Rita +3 26-abr-2018 7:45 2,6 °C 0,0 mm 0,3 W/m² 92,3 % RH 1,90 km/h -
20. Santa Carolina +3 26-abr-2018 7:45 4,9 °C 0,0 mm 0,1 W/m² 90,9 % RH 0,18 km/h -
10.William Fevre +3 26-abr-2018 7:45 2,8 °C 0,0 mm 0,5 W/m² 94,9 % RH 1,60 km/h -
21. Anakena +3 26-abr-2018 8:00 1,4 °C 0,0 mm 0,8 W/m² 95,3 % RH 0,35 km/h -
23.LaRosa(Repuesto) +3 26-abr-2018 8:00 4,4 °C 0,0 mm 0,3 W/m² 100,0 % RH 0,13 km/h -
36. Aresti +3 26-abr-2018 8:00 1,3 °C 0,0 mm 1,1 W/m² 100,0 % RH 0,04 km/h -
33. Puertas 25-abr-2018 14:51 0,0 °C 0,0 mm 0,0 W/m² 0,0 % RH 0,00 km/h -
37. El Aromo +3 26-abr-2018 7:45 4,5 °C 0,0 mm 56,4 W/m² 100,0 % RH 1,42 km/h -
43. Odfjell +3 26-abr-2018 8:00 3,6 °C 0,0 mm 0,1 W/m² 93,5 % RH 0,29 km/h -
41. Casas Patronales +3 26-abr-2018 7:30 4,6 °C 0,0 mm 0,0 W/m² 95,5 % RH 0,06 km/h -
39. JBouchon +3 26-abr-2018 8:00 6,2 °C 0,0 mm 0,2 W/m² 99,9 % RH 2,91 km/h -
40. Torres +4 26-abr-2018 8:00 10,5 °C 0,0 mm 0,5 W/m² 100,0 % RH 1,50 km/h -
46. Siegel +3 26-abr-2018 7:45 6,7 °C 0,0 mm 0,4 W/m² 87,0 % RH 2,62 km/h -
50. Concha y Toro Cii - Pencahue 26-abr-2018 8:00 2,8 °C 0,0 mm 0,1 W/m² 99,8 % RH 3,37 km/h -
44. Guillisasti +3 26-abr-2018 8:00 9,7 °C 0,0 mm 1.873,6 W/m² 100,0 % RH 0,06 km/h -
3. Errazuriz +3 25-abr-2018 3:00 6,8 °C 0,0 mm 0,4 W/m² 100,0 % RH 0,55 km/h -
19. San Pedro - El Transito +3 26-abr-2018 8:00 4,5 °C 0,0 mm 0,8 W/m² 95,3 % RH 0,11 km/h -
22. San Pedro - Totihue +3 26-abr-2018 7:15 20,4 °C 0,0 mm 0,1 W/m² 97,5 % RH 1,07 km/h -
38. San Pedro - Pencahue +3 26-abr-2018 8:00 5,3 °C 0,0 mm 0,6 W/m² 98,5 % RH 3,42 km/h -
35. San Pedro - Molina +3 26-abr-2018 8:00 1,8 °C 0,0 mm 0,3 W/m² 100,0 % RH 0,04 km/h -
15. Tarapaca Maipo +3 26-abr-2018 8:00 2,3 °C 0,0 mm 0,3 W/m² 97,4 % RH 0,03 km/h -
18. Ventisquero - Trinidad +3 26-abr-2018 8:00 -0,5 °C 0,0 mm 0,5 W/m² 100,0 % RH 0,45 km/h -
27. Ventisquero Apalta +3 26-abr-2018 8:00 4,3 °C 0,0 mm 0,7 W/m² 93,4 % RH 1,73 km/h -
8. Ventisquero - Tapihue +3 26-abr-2018 7:45 1,0 °C 0,0 mm 0,5 W/m² 94,2 % RH 1,43 km/h -
31. Ventisquero - Perrillo +3 26-abr-2018 8:00 5,2 °C 0,0 mm 0,6 W/m² 100,0 % RH 2,61 km/h -
45. Ventisquero Leyda +3 26-abr-2018 8:00 8,1 °C 0,0 mm 0,4 W/m² 100,0 % RH 3,46 km/h -
A solution by ADCON Telemetry | Smart wireless solutions
Visite adcon.com